Skagway, AK

8:08 PM AKDT on April 26, 2017 (GMT -0800)
Skagway

Weather History for PAGY - November, 2013

Change the Weather History Date:

Wednesday, November 6, 2013

  Actual Average Record
Temperature  
Mean Temperature 40 °F -  
Max Temperature 44 °F 39 °F 51 °F (2002)
Min Temperature 35 °F 31 °F 16 °F (2005)
Degree Days  
Heating Degree Days 26    
Moisture  
Dew Point 28 °F    
Average Humidity 61    
Maximum Humidity 93    
Minimum Humidity 47    
Precipitation  
Precipitation 0.00 in - - ()
Sea Level Pressure  
Sea Level Pressure 29.98 in    
Wind  
Wind Speed 3 mph (North)    
Max Wind Speed 10 mph    
Max Gust Speed 22 mph    
Visibility 10 miles    
Events      
Averages and records for this station are not official NWS values.
T = Trace of Precipitation, MM = Missing Value Source: NWS Daily Summary

Daily Weather History Graph

Daily Weather History Graph

Search for Another Location

Airport or City:

Trip Planner

Search our weather history database for the weather conditions in past years. The results will help you decide how hot, cold, wet, or windy it might be!

Date:

Astronomy

Nov. 06, 2013 Rise Set
Actual Time 7:34 AM AKST 3:54 PM AKST
Civil Twilight 6:49 AM AKST 4:39 PM AKST
Nautical Twilight 5:59 AM AKST 5:29 PM AKST
Astronomical Twilight 5:12 AM AKST 6:16 PM AKST
Moon 11:19 AM AKST (11/6) 6:45 PM AKST (11/6)
Length of Visible Light 9h 50m
Length of Day
8h 19m
Waxing Crescent, 15% of the Moon is Illuminated
Nov 6
Waxing Crescent
Nov 9
First Quarter
Nov 17
Full
Nov 25
Last Quarter
Dec 2
New

Hourly Weather History & Observations

Time (AKST) Temp. Windchill Dew Point Humidity Pressure Visibility Wind Dir Wind Speed Gust Speed Precip Events Conditions
12:53 AM 35.1 °F 31.0 °F 32.0 °F 89% 29.84 in 10.0 mi NE 4.6 mph - N/A   Overcast
1:53 AM 35.1 °F - 33.1 °F 92% 29.84 in 10.0 mi Calm Calm - N/A   Overcast
3:53 AM 37.0 °F - 35.1 °F 93% 29.88 in 10.0 mi Calm Calm - N/A   Overcast
4:53 AM 37.9 °F - 35.1 °F 89% 29.89 in 10.0 mi Calm Calm - N/A   Overcast
5:53 AM 41.0 °F 35.8 °F 32.0 °F 70% 29.89 in 10.0 mi North 8.1 mph - N/A   Overcast
6:53 AM 39.9 °F - 30.9 °F 70% 29.92 in 10.0 mi Calm Calm - N/A   Overcast
7:53 AM 41.0 °F 38.0 °F 30.0 °F 65% 29.93 in 10.0 mi Variable 4.6 mph - N/A   Overcast
8:53 AM 43.0 °F 37.2 °F 28.0 °F 56% 29.96 in 10.0 mi North 10.4 mph 21.9 mph N/A   Overcast
9:53 AM 43.0 °F 38.8 °F 28.0 °F 56% 29.99 in 10.0 mi Variable 6.9 mph - N/A   Overcast
10:53 AM 43.0 °F 40.3 °F 27.0 °F 53% 29.99 in 10.0 mi Variable 4.6 mph - N/A   Overcast
11:53 AM 43.0 °F 38.8 °F 26.1 °F 51% 30.02 in 10.0 mi North 6.9 mph 16.1 mph N/A   Overcast
12:53 PM 43.0 °F 39.5 °F 26.1 °F 51% 30.04 in 10.0 mi Variable 5.8 mph - N/A   Overcast
1:53 PM 44.1 °F 42.5 °F 25.0 °F 47% 30.04 in 10.0 mi Variable 3.5 mph - N/A   Overcast
2:53 PM 43.0 °F 41.3 °F 24.1 °F 47% 30.03 in 10.0 mi Variable 3.5 mph - N/A   Overcast
3:53 PM 42.1 °F 39.2 °F 25.0 °F 51% 30.04 in 10.0 mi North 4.6 mph - N/A   Overcast
4:53 PM 41.0 °F 39.0 °F 25.0 °F 53% 30.04 in 10.0 mi North 3.5 mph - N/A   Overcast
5:53 PM 41.0 °F 39.0 °F 25.0 °F 53% 30.04 in 10.0 mi Variable 3.5 mph - N/A   Overcast
6:53 PM 41.0 °F - 24.1 °F 51% 30.04 in 10.0 mi Calm Calm - N/A   Overcast
7:53 PM 41.0 °F 39.0 °F 24.1 °F 51% 30.03 in 10.0 mi Variable 3.5 mph - N/A   Overcast
8:53 PM 39.9 °F 37.8 °F 25.0 °F 55% 30.04 in 10.0 mi North 3.5 mph - N/A   Overcast
9:53 PM 39.9 °F 36.7 °F 24.1 °F 53% 30.04 in 10.0 mi Variable 4.6 mph - N/A   Overcast
10:53 PM 39.0 °F - 25.0 °F 57% 30.03 in 10.0 mi Calm Calm - N/A   Overcast
11:53 PM 39.0 °F - 26.1 °F 60% 30.01 in 10.0 mi Calm Calm - N/A   Overcast